Le nostre stazioni meteo in Italia

Pubblicità
Il mio iltempo24.it
Lulea/Kallax, Svezia (2186): Temperatura & dewpoint: 18.06.2018 22:00:00 - 24.06.2018 22:00:00 (CEST)Lulea/Kallax, Svezia (2186): velocità del vento & gusts: 18.06.2018 22:00:00 - 24.06.2018 22:00:00 (CEST)Lulea/Kallax, Svezia (2186): direzione del vento: 18.06.2018 22:00:00 - 24.06.2018 22:00:00 (CEST)Lulea/Kallax, Svezia (2186): reduced air pressure: 18.06.2018 22:00:00 - 24.06.2018 22:00:00 (CEST)Lulea/Kallax, Svezia (2186): visibility: 18.06.2018 22:00:00 - 24.06.2018 22:00:00 (CEST)Lulea/Kallax, Svezia (2186): precipitazioni: 18.06.2018 22:00:00 - 24.06.2018 22:00:00 (CEST)
Data & Tempo tt [°C] td [°C] ff [km/h] ff [kn] fx [km/h] fx [kn] dd ppp [hPa] vv [km] rr [mm]
24.06.2018 22:00:00 - - - - - - - - - -
24.06.2018 21:00:00 13,1 6,7 9 5 18 10 SSO 1012,6 10 0,0
24.06.2018 20:00:00 12,8 6,8 11 6 22 12 S 1012,7 10 0,0
24.06.2018 19:00:00 12,6 7,5 16 9 25 14 S 1012,7 10 0,0
24.06.2018 18:00:00 13,6 7,1 18 10 25 14 S 1012,7 10 0,0
24.06.2018 17:00:00 13,4 7,2 18 10 29 16 S 1012,5 10 0,0
24.06.2018 16:00:00 14,0 6,6 21 11 29 16 S 1012,5 10 0,0
24.06.2018 15:00:00 15,8 7,0 18 10 29 16 SSE 1012,3 10 0,0
24.06.2018 14:00:00 14,5 6,6 18 10 32 18 S 1012,1 10 0,0
24.06.2018 13:00:00 14,5 6,1 22 12 32 18 S 1012,0 10 0,0
24.06.2018 12:00:00 15,6 6,6 16 9 25 14 SO 1011,7 10 0,0
24.06.2018 11:00:00 15,9 4,6 11 6 22 12 O 1011,5 10 0,0
24.06.2018 10:00:00 14,8 5,0 8 4 18 10 NO 1011,2 10 0,0
24.06.2018 09:00:00 14,0 5,1 5 3 18 10 - 1010,6 10 0,0
24.06.2018 08:00:00 12,8 5,0 13 7 18 10 ONO 1010,4 10 0,0
24.06.2018 07:00:00 11,6 4,8 13 7 22 12 O 1010,2 10 0,0
24.06.2018 06:00:00 10,6 5,1 9 5 14 8 ONO 1009,3 10 0,0
24.06.2018 05:00:00 9,9 5,1 5 3 14 8 OSO 1009,0 10 0,0
24.06.2018 04:00:00 9,3 4,9 13 7 14 8 ONO 1008,1 10 0,0
24.06.2018 03:00:00 8,7 4,9 8 4 14 8 O 1007,5 10 0,0
24.06.2018 02:00:00 9,9 5,7 9 5 11 6 O 1007,2 10 0,0
24.06.2018 01:00:00 10,6 6,7 2 1 7 4 - 1006,9 10 0,0
24.06.2018 00:00:00 11,0 6,9 5 3 18 10 O 1006,4 10 0,0
23.06.2018 23:00:00 12,3 6,8 9 5 18 10 NNO 1005,3 10 0,0
23.06.2018 22:00:00 12,8 6,2 9 5 14 8 ONO 1004,5 10 0,0
23.06.2018 21:00:00 13,0 8,5 8 4 14 8 OSO 1003,7 10 0,0
23.06.2018 20:00:00 13,0 9,1 11 6 22 12 S 1002,9 10 0,0
23.06.2018 19:00:00 13,6 9,4 13 7 18 10 S 1002,3 10 0,0
23.06.2018 18:00:00 14,1 7,6 11 6 22 12 OSO 1001,9 10 0,0
23.06.2018 17:00:00 13,9 7,9 13 7 22 12 O 1001,4 10 0,0
23.06.2018 16:00:00 13,5 9,0 13 7 25 14 OSO 1001,1 10 0,0
23.06.2018 15:00:00 13,8 6,6 21 11 32 18 ONO 1000,3 10 0,0
23.06.2018 14:00:00 13,8 7,3 16 9 32 18 NO 999,7 10 0,0
23.06.2018 13:00:00 12,2 7,5 22 12 36 19 NO 998,9 10 0,0
23.06.2018 12:00:00 12,1 8,0 24 13 36 19 NO 998,0 10 0,0
23.06.2018 11:00:00 10,9 7,8 29 16 40 21 NO 997,3 10 0,0
23.06.2018 10:00:00 11,0 8,2 26 14 36 19 NO 996,4 10 0,0
23.06.2018 09:00:00 10,4 8,5 24 13 36 19 NO 995,6 10 0,0
23.06.2018 08:00:00 10,1 8,4 21 11 32 18 NO 994,9 10 0,0
23.06.2018 07:00:00 9,6 8,2 24 13 32 18 NO 994,4 10 0,0
23.06.2018 06:00:00 9,7 8,5 22 12 32 18 NO 993,8 10 0,0
23.06.2018 05:00:00 9,8 8,7 22 12 32 18 NO 993,3 10 0,0
23.06.2018 04:00:00 10,0 9,2 15 8 22 12 NO 992,9 10 0,3
23.06.2018 03:00:00 9,8 9,2 13 7 22 12 NNO 992,3 6 4,0
23.06.2018 02:00:00 10,0 9,2 13 7 22 12 NO 992,0 10 0,0
23.06.2018 01:00:00 10,0 9,2 13 7 22 12 NNO 991,7 10 0,0
23.06.2018 00:00:00 10,0 9,2 13 7 22 12 NNO 991,5 10 0,0
22.06.2018 23:00:00 10,0 9,2 13 7 22 12 NNO 991,4 10 0,0
22.06.2018 22:00:00 10,0 9,2 13 7 22 12 NNO 991,4 10 2,0
22.06.2018 21:00:00 10,0 9,1 13 7 29 16 N 991,4 10 0,7
22.06.2018 20:00:00 10,0 8,9 16 9 29 16 N 991,3 10 0,2
22.06.2018 19:00:00 10,0 8,9 16 9 40 21 NNE 991,0 10 0,4
22.06.2018 18:00:00 9,7 8,6 21 11 43 23 N 990,7 7 3,0
22.06.2018 17:00:00 9,8 8,4 22 12 43 23 N 991,1 9 1,0
22.06.2018 16:00:00 10,4 8,8 18 10 36 19 N 991,9 10 3,0
22.06.2018 15:00:00 10,3 9,2 16 9 36 19 NNE 992,9 10 5,0
22.06.2018 14:00:00 10,3 9,4 13 7 29 16 ENE 993,7 6 7,0
22.06.2018 13:00:00 11,9 8,9 15 8 40 21 N 993,7 10 2,0
22.06.2018 12:00:00 12,9 8,4 15 8 32 18 N 994,4 10 0,7
22.06.2018 11:00:00 13,8 7,8 15 8 32 18 NNE 995,1 10 0,0
22.06.2018 10:00:00 13,6 6,7 21 11 32 18 N 995,8 10 0,0
22.06.2018 09:00:00 13,2 6,8 16 9 32 18 N 997,0 10 0,0
22.06.2018 08:00:00 12,8 6,6 15 8 29 16 N 998,2 10 0,0
22.06.2018 07:00:00 12,0 6,7 13 7 29 16 N 998,9 10 0,0
22.06.2018 06:00:00 10,6 6,2 15 8 29 16 N 999,7 10 0,0
22.06.2018 05:00:00 9,9 5,9 13 7 22 12 NNO 1000,7 10 0,0
22.06.2018 04:00:00 9,9 5,7 11 6 18 10 N 1001,2 10 0,0
22.06.2018 03:00:00 10,0 6,0 11 6 18 10 N 1001,9 10 0,0
22.06.2018 02:00:00 10,1 6,8 9 5 14 8 N 1002,0 10 0,0
22.06.2018 01:00:00 10,2 6,3 5 3 14 8 N 1002,4 10 0,0
22.06.2018 00:00:00 11,7 6,6 9 5 14 8 N 1002,3 10 0,0
21.06.2018 23:00:00 11,8 6,9 8 4 11 6 NNO 1002,6 10 0,0
21.06.2018 22:00:00 11,7 7,2 0 0 11 6 N 1002,3 10 0,0
21.06.2018 21:00:00 14,3 6,9 5 3 14 8 SSO 1002,4 10 0,0
21.06.2018 20:00:00 13,8 6,4 11 6 18 10 SSO 1002,3 10 0,0
21.06.2018 19:00:00 15,5 7,0 13 7 25 14 SSO 1002,1 10 0,0
21.06.2018 18:00:00 14,5 7,3 15 8 25 14 S 1002,0 10 0,0
21.06.2018 17:00:00 16,6 7,3 11 6 25 14 S 1001,9 10 0,0
21.06.2018 16:00:00 14,7 6,0 21 11 32 18 S 1001,9 10 0,0
21.06.2018 15:00:00 13,9 7,7 22 12 32 18 S 1001,6 10 0,0
21.06.2018 14:00:00 14,1 7,4 18 10 36 19 S 1001,4 10 0,0
21.06.2018 13:00:00 14,5 6,3 28 15 36 19 S 1001,1 10 0,0
21.06.2018 12:00:00 16,4 5,7 18 10 29 16 S 1000,9 10 0,0
21.06.2018 11:00:00 15,8 3,9 18 10 29 16 S 1001,1 10 0,0
21.06.2018 10:00:00 15,5 4,5 15 8 25 14 SO 1001,1 10 0,0
21.06.2018 09:00:00 14,3 4,0 13 7 22 12 ONO 1001,0 10 0,0
21.06.2018 08:00:00 13,2 4,1 15 8 25 14 ONO 1000,8 10 0,0
21.06.2018 07:00:00 12,6 4,3 16 9 25 14 ONO 1000,7 10 0,0
21.06.2018 06:00:00 11,8 4,5 15 8 22 12 ONO 1000,6 10 0,0
21.06.2018 05:00:00 10,7 4,2 9 5 18 10 ONO 1000,5 10 0,0
21.06.2018 04:00:00 9,7 3,7 4 2 14 8 - 1000,3 10 0,0
21.06.2018 03:00:00 9,1 3,3 13 7 18 10 O 1000,1 10 0,0
21.06.2018 02:00:00 9,3 3,5 9 5 14 8 O 1000,1 10 0,0
21.06.2018 01:00:00 10,6 3,4 13 7 14 8 O 999,9 10 0,0
21.06.2018 00:00:00 11,4 3,7 5 3 14 8 O 999,7 10 0,0
20.06.2018 23:00:00 13,4 3,5 11 6 22 12 O 999,5 10 0,0
20.06.2018 22:00:00 14,7 3,8 9 5 18 10 O 999,2 10 0,0
20.06.2018 21:00:00 15,6 3,7 15 8 36 19 O 998,9 10 0,0
20.06.2018 20:00:00 16,4 2,8 21 11 36 19 O 998,6 10 0,0
20.06.2018 19:00:00 16,0 4,7 15 8 32 18 NNO 998,5 10 0,0
20.06.2018 18:00:00 17,2 3,1 21 11 43 23 O 998,4 10 0,0
20.06.2018 17:00:00 17,9 3,4 29 16 47 25 O 997,9 10 0,0
20.06.2018 16:00:00 17,6 3,1 21 11 36 19 ONO 997,7 10 0,0
20.06.2018 15:00:00 17,8 3,7 26 14 43 23 O 997,6 10 0,0
20.06.2018 14:00:00 17,5 3,4 29 16 54 29 O 997,4 10 0,0
20.06.2018 13:00:00 17,3 3,9 26 14 40 21 O 997,4 10 0,0
20.06.2018 12:00:00 16,5 3,9 28 15 43 23 ONO 997,0 10 0,0
20.06.2018 11:00:00 16,5 4,5 29 16 43 23 ONO 996,6 10 0,0
20.06.2018 10:00:00 15,3 5,2 24 13 47 25 O 996,0 10 0,0
20.06.2018 09:00:00 14,7 5,8 26 14 47 25 ONO 995,5 10 0,0
20.06.2018 08:00:00 13,4 5,3 29 16 43 23 ONO 995,0 10 0,0
20.06.2018 07:00:00 12,5 6,3 21 11 32 18 O 994,7 10 0,0
20.06.2018 06:00:00 11,0 6,1 21 11 40 21 O 994,4 10 0,0
20.06.2018 05:00:00 9,9 6,2 21 11 29 16 O 994,1 10 0,0
20.06.2018 04:00:00 8,9 6,0 16 9 25 14 O 993,8 10 0,0
20.06.2018 03:00:00 8,7 6,1 16 9 22 12 O 993,5 10 0,0
20.06.2018 02:00:00 8,6 6,7 11 6 22 12 O 993,0 10 0,0
20.06.2018 01:00:00 9,2 6,5 15 8 22 12 O 993,0 10 0,0
20.06.2018 00:00:00 9,3 6,6 16 9 25 14 O 992,5 10 0,0
19.06.2018 23:00:00 9,1 7,1 18 10 25 14 O 992,0 10 0,0
19.06.2018 22:00:00 9,2 7,1 21 11 29 16 O 991,2 10 0,0
19.06.2018 21:00:00 9,6 8,0 18 10 36 19 ONO 990,9 10 0,2
19.06.2018 20:00:00 10,3 9,8 9 5 14 8 OSO 990,4 10 0,1
19.06.2018 19:00:00 10,0 9,4 9 5 22 12 S 990,0 10 0,2
19.06.2018 18:00:00 10,2 9,8 14 8 29 16 SSE 989,6 12 2,0
19.06.2018 17:00:00 10,5 9,9 11 6 25 14 S 989,7 10 0,6
19.06.2018 16:00:00 10,5 9,9 13 7 25 14 S 990,2 10 0,6
19.06.2018 15:00:00 10,7 10,1 18 10 32 18 S 990,6 10 0,3
19.06.2018 14:00:00 11,2 10,6 21 11 32 18 SSE 991,3 5 0,3
19.06.2018 13:00:00 11,1 10,5 22 12 32 18 SSE 992,0 8 2,0
19.06.2018 12:00:00 10,8 10,2 26 14 36 19 SSE 992,9 5 2,0
19.06.2018 11:00:00 10,9 9,7 26 14 36 19 SSE 993,8 6 0,1
19.06.2018 10:00:00 11,7 9,6 24 13 36 19 SSE 994,8 10 0,0
19.06.2018 09:00:00 11,1 9,4 15 8 25 14 SSE 995,5 10 0,0
19.06.2018 08:00:00 10,9 9,2 16 9 25 14 SSE 996,4 10 0,0
19.06.2018 07:00:00 10,8 9,2 18 10 25 14 SSE 997,5 10 0,0
19.06.2018 06:00:00 10,4 9,2 16 9 25 14 S 998,2 10 0,0
19.06.2018 05:00:00 10,3 9,2 14 8 29 16 S 998,9 25 0,0
19.06.2018 04:00:00 10,3 9,4 18 10 29 16 S 999,6 21 0,0
19.06.2018 03:00:00 9,3 8,7 14 8 22 12 S 1000,4 12 0,0
19.06.2018 02:00:00 10,3 9,3 11 6 18 10 SSE 1000,9 30 0,0
19.06.2018 01:00:00 12,3 10,7 8 4 14 8 S 1001,2 10 0,0
19.06.2018 00:00:00 12,0 10,4 5 3 14 8 SSO 1001,7 10 0,0
18.06.2018 23:00:00 12,0 9,6 9 5 18 10 S 1001,9 10 0,0
18.06.2018 22:00:00 12,7 9,7 13 7 18 10 S 1001,9 10 0,0

tt = Temperatura
td = dewpoint
ff = velocità del vento
fx = gusts
dd = direzione del vento
ppp = reduced air pressure
vv = visibility
rr = precipitazioni

Stazioni seguenti

WeatherPro
AMSI
MeteoEarth